| time (UTC) | temp F | wind direction | speed MPH | gust MPH | rain 1hr in | rain 24hr in | rain mn in | humidity % | barometer mb |
| 20260904205005 | 87 | 205 | 13.0 | 22.0 | 0.00 | 0.00 | 0.00 | 16 | 1020.7 |
| 20260904203504 | 86 | 208 | 13.0 | 20.0 | 0.00 | 0.00 | 0.00 | 17 | 1020.7 |
| 20260904203003 | 86 | 206 | 14.0 | 22.0 | 0.00 | 0.00 | 0.00 | 16 | 1020.8 |
| 20260904202504 | 86 | 193 | 14.0 | 20.0 | 0.00 | 0.00 | 0.00 | 17 | 1020.8 |
| 20260904202003 | 85 | 199 | 15.0 | 21.0 | 0.00 | 0.00 | 0.00 | 16 | 1020.8 |
| 20260904201503 | 85 | 192 | 16.0 | 22.0 | 0.00 | 0.00 | 0.00 | 17 | 1020.8 |
| 20260904201004 | 85 | 203 | 13.0 | 20.0 | 0.00 | 0.00 | 0.00 | 18 | 1021.0 |
| 20260904200503 | 85 | 208 | 13.0 | 21.0 | 0.00 | 0.00 | 0.00 | 17 | 1021.1 |
| 20260904200004 | 85 | 199 | 10.0 | 21.0 | 0.00 | 0.00 | 0.00 | 18 | 1021.3 |
| 20260904195504 | 85 | 198 | 12.0 | 20.0 | 0.00 | 0.00 | 0.00 | 18 | 1021.4 |
| 20260904194503 | 84 | 227 | 12.0 | 20.0 | 0.00 | 0.00 | 0.00 | 18 | 1021.4 |
| 20260904194003 | 84 | 201 | 13.0 | 20.0 | 0.00 | 0.00 | 0.00 | 18 | 1021.4 |
| 20260904193504 | 84 | 193 | 11.0 | 18.0 | 0.00 | 0.00 | 0.00 | 18 | 1021.6 |
| 20260904193004 | 84 | 200 | 12.0 | 20.0 | 0.00 | 0.00 | 0.00 | 18 | 1021.5 |
| 20260904192504 | 84 | 213 | 12.0 | 16.0 | 0.00 | 0.00 | 0.00 | 18 | 1021.5 |
| 20260904192005 | 84 | 203 | 12.0 | 20.0 | 0.00 | 0.00 | 0.00 | 18 | 1021.6 |
| 20260904191504 | 84 | 190 | 12.0 | 20.0 | 0.00 | 0.00 | 0.00 | 17 | 1021.6 |
| 20260904191003 | 84 | 204 | 12.0 | 18.0 | 0.00 | 0.00 | 0.00 | 17 | 1021.7 |
| 20260904190004 | 84 | 180 | 12.0 | 21.0 | 0.00 | 0.00 | 0.00 | 18 | 1021.7 |
| 20260904185504 | 83 | 205 | 13.0 | 18.0 | 0.00 | 0.00 | 0.00 | 19 | 1021.8 |
| 20260904185004 | 83 | 202 | 12.0 | 21.0 | 0.00 | 0.00 | 0.00 | 19 | 1021.8 |
| 20260904184004 | 83 | 173 | 12.0 | 20.0 | 0.00 | 0.00 | 0.00 | 19 | 1021.7 |
| 20260904183504 | 83 | 166 | 12.0 | 21.0 | 0.00 | 0.00 | 0.00 | 20 | 1021.7 |
| 20260904183004 | 82 | 185 | 9.0 | 20.0 | 0.00 | 0.00 | 0.00 | 20 | 1021.8 |
| 20260904182504 | 82 | 196 | 12.0 | 18.0 | 0.00 | 0.00 | 0.00 | 20 | 1021.9 |
| 20260904182004 | 82 | 184 | 13.0 | 20.0 | 0.00 | 0.00 | 0.00 | 21 | 1021.9 |
| 20260904181504 | 81 | 176 | 8.0 | 13.0 | 0.00 | 0.00 | 0.00 | 21 | 1022.1 |
| 20260904181004 | 82 | 204 | 10.0 | 17.0 | 0.00 | 0.00 | 0.00 | 21 | 1022.1 |
| 20260904180504 | 82 | 201 | 10.0 | 18.0 | 0.00 | 0.00 | 0.00 | 21 | 1021.9 |
| 20260904180003 | 82 | 206 | 7.0 | 18.0 | 0.00 | 0.00 | 0.00 | 21 | 1022.0 |
| 20260904175503 | 82 | 211 | 11.0 | 15.0 | 0.00 | 0.00 | 0.00 | 21 | 1022.1 |
| 20260904175004 | 82 | 217 | 9.0 | 15.0 | 0.00 | 0.00 | 0.00 | 21 | 1022.1 |
| 20260904174503 | 82 | 235 | 9.0 | 15.0 | 0.00 | 0.00 | 0.00 | 21 | 1022.1 |
| 20260904173504 | 81 | 220 | 9.0 | 14.0 | 0.00 | 0.00 | 0.00 | 21 | 1022.1 |
| 20260904172004 | 81 | 193 | 7.0 | 21.0 | 0.00 | 0.00 | 0.00 | 23 | 1022.0 |
| 20260904171504 | 80 | 134 | 2.0 | 7.0 | 0.00 | 0.00 | 0.00 | 27 | 1021.9 |
| 20260904171004 | 80 | 114 | 1.0 | 7.0 | 0.00 | 0.00 | 0.00 | 27 | 1022.0 |
| 20260904170504 | 79 | 144 | 6.0 | 10.0 | 0.00 | 0.00 | 0.00 | 28 | 1022.0 |
| 20260904170003 | 79 | 80 | 3.0 | 7.0 | 0.00 | 0.00 | 0.00 | 28 | 1022.0 |
| 20260904165504 | 78 | 93 | 2.0 | 7.0 | 0.00 | 0.00 | 0.00 | 29 | 1021.9 |
| 20260904165004 | 78 | 124 | 6.0 | 9.0 | 0.00 | 0.00 | 0.00 | 29 | 1021.7 |
| 20260904164504 | 78 | 131 | 2.0 | 8.0 | 0.00 | 0.00 | 0.00 | 28 | 1021.7 |
| 20260904164005 | 78 | 113 | 2.0 | 9.0 | 0.00 | 0.00 | 0.00 | 29 | 1021.7 |
| 20260904163503 | 78 | 138 | 6.0 | 8.0 | 0.00 | 0.00 | 0.00 | 29 | 1021.6 |
| 20260904162504 | 78 | 86 | 2.0 | 6.0 | 0.00 | 0.00 | 0.00 | 29 | 1021.5 |
| 20260904162004 | 78 | 105 | 2.0 | 3.0 | 0.00 | 0.00 | 0.00 | 30 | 1021.4 |
| 20260904161504 | 78 | 94 | 2.0 | 5.0 | 0.00 | 0.00 | 0.00 | 29 | 1021.4 |
| 20260904161004 | 78 | 125 | 1.0 | 3.0 | 0.00 | 0.00 | 0.00 | 30 | 1021.3 |
| 20260904160504 | 77 | 90 | 1.0 | 3.0 | 0.00 | 0.00 | 0.00 | 30 | 1021.3 |
| 20260904160004 | 78 | 96 | 2.0 | 6.0 | 0.00 | 0.00 | 0.00 | 30 | 1021.3 |
| 20260904155504 | 78 | 150 | 2.0 | 3.0 | 0.00 | 0.00 | 0.00 | 30 | 1021.4 |
| 20260904155006 | 77 | 155 | 1.0 | 2.0 | 0.00 | 0.00 | 0.00 | 30 | 1021.4 |
| 20260904154504 | 77 | 155 | 0.0 | 3.0 | 0.00 | 0.00 | 0.00 | 30 | 1021.4 |
| 20260904154004 | 76 | 179 | 0.0 | 1.0 | 0.00 | 0.00 | 0.00 | 30 | 1021.5 |
| 20260904153004 | 77 | 181 | 0.0 | 2.0 | 0.00 | 0.00 | 0.00 | 30 | 1021.4 |
| 20260904152504 | 77 | 182 | 0.0 | 1.0 | 0.00 | 0.00 | 0.00 | 31 | 1021.4 |
| 20260904152003 | 77 | 204 | 0.0 | 2.0 | 0.00 | 0.00 | 0.00 | 31 | 1021.3 |
| 20260904151504 | 76 | 209 | 0.0 | 0.0 | 0.00 | 0.00 | 0.00 | 31 | 1021.3 |
| 20260904151003 | 75 | 209 | 0.0 | 0.0 | 0.00 | 0.00 | 0.00 | 32 | 1021.3 |
| 20260904150505 | 75 | 209 | 0.0 | 0.0 | 0.00 | 0.00 | 0.00 | 32 | 1021.2 |
| 20260904150005 | 73 | 209 | 0.0 | 0.0 | 0.00 | 0.00 | 0.00 | 32 | 1021.2 |
| 20260904145504 | 72 | 209 | 0.0 | 0.0 | 0.00 | 0.00 | 0.00 | 33 | 1021.2 |
| 20260904145003 | 71 | 209 | 0.0 | 0.0 | 0.00 | 0.00 | 0.00 | 34 | 1021.2 |
| 20260904144504 | 70 | 209 | 0.0 | 0.0 | 0.00 | 0.00 | 0.00 | 35 | 1021.1 |
| 20260904144004 | 69 | 209 | 0.0 | 0.0 | 0.00 | 0.00 | 0.00 | 36 | 1021.0 |
| 20260904143504 | 67 | 209 | 0.0 | 0.0 | 0.00 | 0.00 | 0.00 | 37 | 1021.0 |
| 20260904143003 | 67 | 209 | 0.0 | 0.0 | 0.00 | 0.00 | 0.00 | 38 | 1021.0 |
| 20260904142503 | 66 | 209 | 0.0 | 0.0 | 0.00 | 0.00 | 0.00 | 37 | 1020.9 |
| 20260904142004 | 66 | 209 | 1.0 | 3.0 | 0.00 | 0.00 | 0.00 | 37 | 1020.7 |
| 20260904141504 | 66 | 209 | 0.0 | 0.0 | 0.00 | 0.00 | 0.00 | 37 | 1020.7 |
| 20260904141004 | 66 | 209 | 0.0 | 1.0 | 0.00 | 0.00 | 0.00 | 39 | 1020.5 |
| 20260904140504 | 65 | 209 | 0.0 | 0.0 | 0.00 | 0.00 | 0.00 | 39 | 1020.5 |
| 20260904140004 | 65 | 209 | 0.0 | 3.0 | 0.00 | 0.00 | 0.00 | 39 | 1020.4 |
| 20260904135504 | 64 | 209 | 2.0 | 3.0 | 0.00 | 0.00 | 0.00 | 42 | 1020.4 |
| 20260904135005 | 62 | 225 | 1.0 | 3.0 | 0.00 | 0.00 | 0.00 | 43 | 1020.2 |
| 20260904134004 | 62 | 226 | 0.0 | 1.0 | 0.00 | 0.00 | 0.00 | 43 | 1020.1 |
| 20260904133504 | 62 | 226 | 0.0 | 1.0 | 0.00 | 0.00 | 0.00 | 42 | 1020.1 |
| 20260904133004 | 62 | 226 | 0.0 | 2.0 | 0.00 | 0.00 | 0.00 | 42 | 1019.9 |
| 20260904132003 | 63 | 222 | 1.0 | 2.0 | 0.00 | 0.00 | 0.00 | 40 | 1019.9 |
| 20260904131504 | 63 | 222 | 0.0 | 3.0 | 0.00 | 0.00 | 0.00 | 41 | 1019.9 |
| 20260904131004 | 63 | 223 | 1.0 | 3.0 | 0.00 | 0.00 | 0.00 | 41 | 1019.8 |
| 20260904130504 | 63 | 224 | 1.0 | 3.0 | 0.00 | 0.00 | 0.00 | 41 | 1019.7 |
| 20260904130004 | 63 | 225 | 1.0 | 3.0 | 0.00 | 0.00 | 0.00 | 40 | 1019.7 |
| 20260904125503 | 63 | 232 | 0.0 | 1.0 | 0.00 | 0.00 | 0.00 | 41 | 1019.7 |
| 20260904125005 | 63 | 232 | 2.0 | 5.0 | 0.00 | 0.00 | 0.00 | 39 | 1019.7 |
| 20260904124504 | 63 | 224 | 3.0 | 3.0 | 0.00 | 0.00 | 0.00 | 40 | 1019.5 |
| 20260904124005 | 63 | 215 | 3.0 | 6.0 | 0.00 | 0.00 | 0.00 | 41 | 1019.6 |
| 20260904123503 | 62 | 224 | 2.0 | 3.0 | 0.00 | 0.00 | 0.00 | 42 | 1019.6 |
| 20260904123004 | 62 | 228 | 0.0 | 2.0 | 0.00 | 0.00 | 0.00 | 42 | 1019.6 |
| 20260904122504 | 62 | 230 | 1.0 | 3.0 | 0.00 | 0.00 | 0.00 | 43 | 1019.6 |
| 20260904122004 | 62 | 230 | 2.0 | 5.0 | 0.00 | 0.00 | 0.00 | 42 | 1019.6 |
| 20260904121504 | 61 | 234 | 1.0 | 3.0 | 0.00 | 0.00 | 0.00 | 44 | 1019.7 |
| 20260904121003 | 61 | 236 | 1.0 | 2.0 | 0.00 | 0.00 | 0.00 | 45 | 1019.6 |
| 20260904120504 | 61 | 238 | 0.0 | 1.0 | 0.00 | 0.00 | 0.00 | 46 | 1019.7 |
| 20260904120004 | 61 | 238 | 0.0 | 2.0 | 0.00 | 0.00 | 0.00 | 45 | 1019.5 |
| 20260904115504 | 61 | 238 | 1.0 | 3.0 | 0.00 | 0.00 | 0.00 | 46 | 1019.7 |
| 20260904114504 | 60 | 235 | 1.0 | 2.0 | 0.00 | 0.00 | 0.00 | 46 | 1019.8 |
| 20260904114003 | 60 | 235 | 1.0 | 2.0 | 0.00 | 0.00 | 0.00 | 46 | 1019.7 |
| 20260904113503 | 60 | 231 | 0.0 | 1.0 | 0.00 | 0.00 | 0.00 | 47 | 1019.8 |
| 20260904113004 | 60 | 231 | 0.0 | 0.0 | 0.00 | 0.00 | 0.00 | 48 | 1019.6 |
| 20260904112504 | 59 | 231 | 0.0 | 1.0 | 0.00 | 0.00 | 0.00 | 47 | 1019.6 |
| 20260904112004 | 59 | 231 | 0.0 | 0.0 | 0.00 | 0.00 | 0.00 | 47 | 1019.7 |
| 20260904111504 | 60 | 231 | 0.0 | 0.0 | 0.00 | 0.00 | 0.00 | 47 | 1019.6 |
| 20260904111004 | 60 | 231 | 0.0 | 0.0 | 0.00 | 0.00 | 0.00 | 47 | 1019.6 |
| 20260904110003 | 60 | 230 | 0.0 | 0.0 | 0.00 | 0.00 | 0.00 | 47 | 1019.4 |
| 20260904105503 | 60 | 230 | 0.0 | 0.0 | 0.00 | 0.00 | 0.00 | 46 | 1019.4 |
| 20260904105005 | 61 | 230 | 0.0 | 2.0 | 0.00 | 0.00 | 0.00 | 45 | 1019.5 |
| 20260904104504 | 61 | 230 | 0.0 | 2.0 | 0.00 | 0.00 | 0.00 | 45 | 1019.4 |
| 20260904103504 | 61 | 229 | 0.0 | 3.0 | 0.00 | 0.00 | 0.00 | 45 | 1019.4 |
| 20260904103003 | 61 | 224 | 1.0 | 3.0 | 0.00 | 0.00 | 0.00 | 45 | 1019.3 |
| 20260904102504 | 61 | 213 | 1.0 | 2.0 | 0.00 | 0.00 | 0.00 | 46 | 1019.3 |
| 20260904102004 | 62 | 212 | 0.0 | 0.0 | 0.00 | 0.00 | 0.00 | 46 | 1019.4 |
| 20260904101504 | 62 | 212 | 1.0 | 3.0 | 0.00 | 0.00 | 0.00 | 47 | 1019.3 |
| 20260904100503 | 61 | 223 | 2.0 | 3.0 | 0.00 | 0.00 | 0.00 | 50 | 1019.2 |
| 20260904095004 | 61 | 200 | 1.0 | 3.0 | 0.00 | 0.00 | 0.00 | 51 | 1019.2 |
| 20260904094504 | 62 | 190 | 1.0 | 2.0 | 0.00 | 0.00 | 0.00 | 49 | 1019.2 |
| 20260904093506 | 62 | 190 | 1.0 | 3.0 | 0.00 | 0.00 | 0.00 | 51 | 1019.3 |
| 20260904093004 | 61 | 192 | 0.0 | 1.0 | 0.00 | 0.00 | 0.00 | 48 | 1019.2 |
| 20260904092504 | 62 | 192 | 0.0 | 0.0 | 0.00 | 0.00 | 0.00 | 47 | 1019.3 |
| 20260904092004 | 62 | 192 | 0.0 | 0.0 | 0.00 | 0.00 | 0.00 | 46 | 1019.3 |
| 20260904091503 | 62 | 192 | 0.0 | 0.0 | 0.00 | 0.00 | 0.00 | 47 | 1019.3 |
| 20260904091004 | 61 | 192 | 0.0 | 0.0 | 0.00 | 0.00 | 0.00 | 45 | 1019.3 |
| 20260904090504 | 62 | 192 | 0.0 | 0.0 | 0.00 | 0.00 | 0.00 | 45 | 1019.3 |
| 20260904090005 | 62 | 192 | 0.0 | 0.0 | 0.00 | 0.00 | 0.00 | 45 | 1019.3 |
| 20260904085505 | 63 | 191 | 0.0 | 0.0 | 0.00 | 0.00 | 0.00 | 44 | 1019.5 |
| 20260904085005 | 63 | 191 | 0.0 | 0.0 | 0.00 | 0.00 | 0.00 | 44 | 1019.4 |
| 20260904084503 | 64 | 191 | 0.0 | 2.0 | 0.00 | 0.00 | 0.00 | 43 | 1019.5 |
| 20260904084004 | 64 | 228 | 0.0 | 2.0 | 0.00 | 0.00 | 0.00 | 42 | 1019.4 |
| 20260904083504 | 64 | 237 | 0.0 | 0.0 | 0.00 | 0.00 | 0.00 | 41 | 1019.4 |
| 20260904083004 | 65 | 237 | 0.0 | 3.0 | 0.00 | 0.00 | 0.00 | 41 | 1019.4 |
| 20260904082004 | 66 | 261 | 0.0 | 1.0 | 0.00 | 0.00 | 0.00 | 40 | 1019.4 |
| 20260904081504 | 66 | 261 | 0.0 | 0.0 | 0.00 | 0.00 | 0.00 | 39 | 1019.3 |
| 20260904080504 | 68 | 235 | 0.0 | 2.0 | 0.00 | 0.00 | 0.00 | 39 | 1019.4 |
| 20260904080004 | 68 | 235 | 0.0 | 0.0 | 0.00 | 0.00 | 0.00 | 40 | 1019.4 |
| 20260904075504 | 69 | 235 | 0.0 | 2.0 | 0.00 | 0.00 | 0.00 | 40 | 1019.5 |
| 20260904074504 | 70 | 225 | 2.0 | 5.0 | 0.00 | 0.00 | 0.00 | 40 | 1019.6 |
| 20260904074004 | 71 | 240 | 1.0 | 3.0 | 0.00 | 0.00 | 0.00 | 38 | 1019.7 |
| 20260904072504 | 70 | 295 | 5.0 | 8.0 | 0.00 | 0.00 | 0.00 | 39 | 1019.5 |
| 20260904071504 | 68 | 305 | 0.0 | 2.0 | 0.00 | 0.00 | 0.00 | 41 | 1019.3 |
| 20260904070504 | 68 | 200 | 0.0 | 1.0 | 0.00 | 0.00 | 0.00 | 38 | 1019.2 |
| 20260904070004 | 69 | 180 | 0.0 | 3.0 | 0.00 | 0.00 | 0.00 | 38 | 1019.2 |
| 20260904065505 | 69 | 170 | 0.0 | 3.0 | 0.00 | 0.00 | 0.00 | 38 | 1019.2 |
| 20260904064503 | 69 | 161 | 2.0 | 5.0 | 0.00 | 0.00 | 0.00 | 38 | 1019.2 |
| 20260904064004 | 68 | 186 | 0.0 | 2.0 | 0.00 | 0.00 | 0.00 | 39 | 1019.2 |
| 20260904063003 | 69 | 243 | 0.0 | 0.0 | 0.00 | 0.00 | 0.00 | 38 | 1019.3 |
| 20260904062504 | 70 | 243 | 0.0 | 0.0 | 0.00 | 0.00 | 0.00 | 37 | 1019.2 |
| 20260904062004 | 70 | 243 | 0.0 | 0.0 | 0.00 | 0.00 | 0.00 | 37 | 1019.3 |
| 20260904061504 | 71 | 243 | 0.0 | 0.0 | 0.00 | 0.00 | 0.00 | 37 | 1019.2 |
| 20260904061004 | 71 | 243 | 0.0 | 3.0 | 0.00 | 0.00 | 0.00 | 36 | 1019.3 |
| 20260904060504 | 72 | 206 | 7.0 | 12.0 | 0.00 | 0.00 | 0.00 | 37 | 1019.2 |
| 20260904060004 | 72 | 178 | 8.0 | 12.0 | 0.00 | 0.00 | 0.00 | 37 | 1019.3 |
| 20260904055504 | 72 | 190 | 6.0 | 10.0 | 0.00 | 0.00 | 0.00 | 36 | 1019.3 |
| 20260904054003 | 71 | 166 | 8.0 | 12.0 | 0.00 | 0.00 | 0.00 | 36 | 1019.3 |
| 20260904053504 | 71 | 188 | 5.0 | 8.0 | 0.00 | 0.00 | 0.00 | 36 | 1019.3 |
| 20260904053005 | 71 | 193 | 4.0 | 7.0 | 0.00 | 0.00 | 0.00 | 36 | 1019.3 |
| 20260904052504 | 71 | 192 | 6.0 | 8.0 | 0.00 | 0.00 | 0.00 | 36 | 1019.2 |
| 20260904052004 | 72 | 199 | 6.0 | 7.0 | 0.00 | 0.00 | 0.00 | 36 | 1019.5 |
| 20260904051504 | 72 | 208 | 3.0 | 7.0 | 0.00 | 0.00 | 0.00 | 35 | 1019.5 |
| 20260904051004 | 71 | 190 | 5.0 | 8.0 | 0.00 | 0.00 | 0.00 | 36 | 1019.5 |
| 20260904050504 | 72 | 186 | 0.0 | 1.0 | 0.00 | 0.00 | 0.00 | 35 | 1019.5 |
| 20260904050004 | 72 | 186 | 0.0 | 1.0 | 0.00 | 0.00 | 0.00 | 35 | 1019.5 |
| 20260904045504 | 73 | 186 | 2.0 | 7.0 | 0.00 | 0.00 | 0.00 | 35 | 1019.5 |
| 20260904044504 | 74 | 183 | 5.0 | 8.0 | 0.00 | 0.00 | 0.00 | 35 | 1019.5 |
| 20260904043504 | 74 | 248 | 1.0 | 8.0 | 0.00 | 0.00 | 0.00 | 35 | 1019.5 |
| 20260904043004 | 74 | 255 | 2.0 | 5.0 | 0.00 | 0.00 | 0.00 | 35 | 1019.5 |
| 20260904042504 | 74 | 251 | 3.0 | 8.0 | 0.00 | 0.00 | 0.00 | 35 | 1019.5 |
| 20260904042004 | 74 | 231 | 3.0 | 6.0 | 0.00 | 0.00 | 0.00 | 35 | 1019.5 |
| 20260904041504 | 74 | 265 | 2.0 | 6.0 | 0.00 | 0.00 | 0.00 | 35 | 1019.5 |
| 20260904041006 | 75 | 255 | 2.0 | 8.0 | 0.00 | 0.00 | 0.00 | 34 | 1019.5 |
| 20260904040504 | 75 | 253 | 1.0 | 3.0 | 0.00 | 0.00 | 0.00 | 34 | 1019.4 |
| 20260904040004 | 75 | 267 | 2.0 | 6.0 | 0.00 | 0.00 | 0.00 | 34 | 1019.4 |
| 20260904035505 | 76 | 286 | 4.0 | 8.0 | 0.00 | 0.00 | 0.00 | 34 | 1019.4 |
| 20260904035004 | 76 | 291 | 3.0 | 9.0 | 0.00 | 0.00 | 0.00 | 34 | 1019.2 |
| 20260904034504 | 75 | 291 | 6.0 | 10.0 | 0.00 | 0.00 | 0.00 | 33 | 1019.2 |
| 20260904034004 | 74 | 270 | 2.0 | 6.0 | 0.00 | 0.00 | 0.00 | 36 | 1019.1 |
| 20260904033504 | 74 | 273 | 3.0 | 8.0 | 0.00 | 0.00 | 0.00 | 36 | 1019.1 |
| 20260904033004 | 75 | 267 | 4.0 | 7.0 | 0.00 | 0.00 | 0.00 | 36 | 1019.0 |
| 20260904032004 | 75 | 235 | 5.0 | 8.0 | 0.00 | 0.00 | 0.00 | 36 | 1019.0 |
| 20260904030503 | 76 | 222 | 7.0 | 13.0 | 0.00 | 0.00 | 0.00 | 34 | 1018.8 |
| 20260904025005 | 76 | 229 | 9.0 | 12.0 | 0.00 | 0.00 | 0.00 | 34 | 1018.9 |
| 20260904024504 | 76 | 236 | 5.0 | 12.0 | 0.00 | 0.00 | 0.00 | 34 | 1019.0 |
| 20260904024005 | 77 | 237 | 5.0 | 12.0 | 0.00 | 0.00 | 0.00 | 33 | 1019.0 |
| 20260904023505 | 77 | 236 | 6.0 | 12.0 | 0.00 | 0.00 | 0.00 | 32 | 1018.9 |
| 20260904023004 | 78 | 216 | 6.0 | 12.0 | 0.00 | 0.00 | 0.00 | 30 | 1018.8 |
| 20260904022504 | 78 | 206 | 4.0 | 7.0 | 0.00 | 0.00 | 0.00 | 30 | 1018.8 |
| 20260904022005 | 78 | 223 | 5.0 | 9.0 | 0.00 | 0.00 | 0.00 | 31 | 1018.9 |
| 20260904021504 | 78 | 242 | 2.0 | 6.0 | 0.00 | 0.00 | 0.00 | 31 | 1018.9 |
| 20260904021004 | 79 | 270 | 4.0 | 12.0 | 0.00 | 0.00 | 0.00 | 30 | 1019.0 |
| 20260904020504 | 79 | 224 | 6.0 | 12.0 | 0.00 | 0.00 | 0.00 | 30 | 1018.9 |
| 20260904020005 | 80 | 238 | 6.0 | 12.0 | 0.00 | 0.00 | 0.00 | 28 | 1019.0 |
| 20260904015504 | 80 | 210 | 8.0 | 12.0 | 0.00 | 0.00 | 0.00 | 27 | 1018.9 |
| 20260904015005 | 80 | 208 | 7.0 | 12.0 | 0.00 | 0.00 | 0.00 | 28 | 1018.9 |
| 20260904014504 | 81 | 218 | 7.0 | 13.0 | 0.00 | 0.00 | 0.00 | 27 | 1018.8 |
| 20260904014004 | 81 | 225 | 10.0 | 16.0 | 0.00 | 0.00 | 0.00 | 27 | 1018.9 |
| 20260904013504 | 81 | 216 | 9.0 | 16.0 | 0.00 | 0.00 | 0.00 | 27 | 1018.9 |
| 20260904012503 | 82 | 217 | 7.0 | 13.0 | 0.00 | 0.00 | 0.00 | 25 | 1018.8 |
| 20260904011505 | 83 | 214 | 10.0 | 16.0 | 0.00 | 0.00 | 0.00 | 24 | 1018.7 |
| 20260904011005 | 84 | 210 | 7.0 | 12.0 | 0.00 | 0.00 | 0.00 | 24 | 1018.8 |
| 20260904010504 | 84 | 220 | 9.0 | 15.0 | 0.00 | 0.00 | 0.00 | 23 | 1018.8 |
| 20260904010004 | 84 | 216 | 9.0 | 15.0 | 0.00 | 0.00 | 0.00 | 23 | 1018.7 |
| 20260904005504 | 84 | 207 | 10.0 | 15.0 | 0.00 | 0.00 | 0.00 | 23 | 1018.7 |
| 20260904005004 | 85 | 229 | 8.0 | 17.0 | 0.00 | 0.00 | 0.00 | 23 | 1018.7 |
| 20260904004504 | 85 | 230 | 7.0 | 13.0 | 0.00 | 0.00 | 0.00 | 22 | 1018.7 |
| 20260904004004 | 85 | 229 | 12.0 | 17.0 | 0.00 | 0.00 | 0.00 | 22 | 1018.7 |
| 20260904003505 | 85 | 222 | 9.0 | 16.0 | 0.00 | 0.00 | 0.00 | 22 | 1018.8 |
| 20260904003004 | 85 | 226 | 10.0 | 16.0 | 0.00 | 0.00 | 0.00 | 21 | 1018.8 |
| 20260904002004 | 85 | 208 | 14.0 | 20.0 | 0.00 | 0.00 | 0.00 | 21 | 1019.0 |
| 20260904001504 | 85 | 217 | 10.0 | 15.0 | 0.00 | 0.00 | 0.00 | 19 | 1018.9 |
| 20260904001004 | 86 | 220 | 10.0 | 17.0 | 0.00 | 0.00 | 0.00 | 19 | 1019.0 |
| 20260904000504 | 85 | 182 | 10.0 | 17.0 | 0.00 | 0.00 | 0.00 | 19 | 1018.9 |
| 20260904000004 | 86 | 199 | 9.0 | 16.0 | 0.00 | 0.00 | 0.00 | 19 | 1019.0 |
| 20260903235004 | 86 | 201 | 11.0 | 17.0 | 0.00 | 0.00 | 0.00 | 18 | 1019.2 |
| 20260903234505 | 86 | 179 | 13.0 | 22.0 | 0.00 | 0.00 | 0.00 | 18 | 1019.3 |
| 20260903234004 | 86 | 174 | 12.0 | 25.0 | 0.00 | 0.00 | 0.00 | 19 | 1019.3 |
| 20260903233504 | 86 | 178 | 13.0 | 23.0 | 0.00 | 0.00 | 0.00 | 18 | 1019.3 |
| 20260903233004 | 86 | 203 | 10.0 | 20.0 | 0.00 | 0.00 | 0.00 | 18 | 1019.3 |
| 20260903232504 | 86 | 177 | 12.0 | 20.0 | 0.00 | 0.00 | 0.00 | 18 | 1019.3 |
| 20260903231504 | 87 | 181 | 10.0 | 16.0 | 0.00 | 0.00 | 0.00 | 18 | 1019.4 |
| 20260903230504 | 87 | 157 | 12.0 | 21.0 | 0.00 | 0.00 | 0.00 | 18 | 1019.5 |
| 20260903230003 | 87 | 179 | 11.0 | 20.0 | 0.00 | 0.00 | 0.00 | 17 | 1019.5 |
| 20260903225503 | 87 | 162 | 13.0 | 24.0 | 0.00 | 0.00 | 0.00 | 17 | 1019.5 |
| 20260903225003 | 87 | 158 | 15.0 | 20.0 | 0.00 | 0.00 | 0.00 | 17 | 1019.6 |
| 20260903224503 | 87 | 173 | 12.0 | 20.0 | 0.00 | 0.00 | 0.00 | 17 | 1019.6 |
| 20260903224003 | 87 | 199 | 13.0 | 18.0 | 0.00 | 0.00 | 0.00 | 17 | 1019.6 |
| 20260903223503 | 87 | 185 | 12.0 | 20.0 | 0.00 | 0.00 | 0.00 | 17 | 1019.7 |
| 20260903222502 | 87 | 172 | 12.0 | 22.0 | 0.00 | 0.00 | 0.00 | 17 | 1019.8 |
| 20260903222003 | 87 | 174 | 11.0 | 18.0 | 0.00 | 0.00 | 0.00 | 17 | 1019.8 |
| 20260903221502 | 87 | 205 | 12.0 | 18.0 | 0.00 | 0.00 | 0.00 | 17 | 1019.9 |
| 20260903221002 | 87 | 188 | 16.0 | 21.0 | 0.00 | 0.00 | 0.00 | 17 | 1020.0 |
| 20260903220502 | 87 | 192 | 11.0 | 20.0 | 0.00 | 0.00 | 0.00 | 17 | 1020.0 |
| 20260903220003 | 87 | 185 | 12.0 | 20.0 | 0.00 | 0.00 | 0.00 | 17 | 1020.0 |
| 20260903215502 | 88 | 198 | 11.0 | 17.0 | 0.00 | 0.00 | 0.00 | 17 | 1020.0 |
| 20260903215002 | 87 | 167 | 13.0 | 17.0 | 0.00 | 0.00 | 0.00 | 17 | 1020.1 |
| 20260903214503 | 87 | 192 | 13.0 | 20.0 | 0.00 | 0.00 | 0.00 | 17 | 1020.1 |
| 20260903214003 | 87 | 179 | 14.0 | 21.0 | 0.00 | 0.00 | 0.00 | 15 | 1020.0 |
| 20260903213503 | 87 | 155 | 12.0 | 16.0 | 0.00 | 0.00 | 0.00 | 14 | 1020.1 |
| 20260903212003 | 87 | 178 | 14.0 | 20.0 | 0.00 | 0.00 | 0.00 | 15 | 1020.1 |
| 20260903211504 | 87 | 151 | 13.0 | 17.0 | 0.00 | 0.00 | 0.00 | 14 | 1020.2 |
| 20260903211004 | 86 | 149 | 13.0 | 21.0 | 0.00 | 0.00 | 0.00 | 14 | 1020.3 |
| 20260903210502 | 86 | 148 | 14.0 | 22.0 | 0.00 | 0.00 | 0.00 | 14 | 1020.2 |